| time (UTC) | temp F | wind direction | speed knots | gust knots | rain 1hr in | rain 24hr in | rain mn in | humidity % | barometer mb |
| 20260505031543 | 65 | 167 | 0.0 | 0.9 | 0.00 | 0.00 | 0.00 | 35 | 1015.8 |
| 20260505030042 | 65 | 180 | 0.0 | 0.0 | 0.00 | 0.00 | 0.00 | 35 | 1015.9 |
| 20260505024546 | 65 | 162 | 0.0 | 6.1 | 0.00 | 0.00 | 0.00 | 34 | 1015.9 |
| 20260505023045 | 66 | 186 | 0.0 | 0.0 | 0.00 | 0.00 | 0.00 | 34 | 1015.7 |
| 20260505021544 | 66 | 183 | 0.0 | 0.0 | 0.00 | 0.00 | 0.00 | 34 | 1015.7 |
| 20260505020037 | 66 | 170 | 0.0 | 0.0 | 0.00 | 0.00 | 0.00 | 33 | 1015.6 |
| 20260505014542 | 66 | 163 | 0.0 | 0.0 | 0.00 | 0.00 | 0.00 | 32 | 1015.5 |
| 20260505013036 | 65 | 189 | 0.0 | 0.0 | 0.00 | 0.00 | 0.00 | 34 | 1015.4 |
| 20260505011536 | 66 | 191 | 0.0 | 0.0 | 0.00 | 0.00 | 0.00 | 33 | 1015.3 |
| 20260505010005 | 67 | 193 | 0.0 | 0.0 | 0.00 | 0.00 | 0.00 | 32 | 1015.2 |
| 20260505004505 | 68 | 193 | 0.0 | 0.0 | 0.00 | 0.00 | 0.00 | 29 | 1015.0 |
| 20260505003002 | 69 | 194 | 0.0 | 0.0 | 0.00 | 0.00 | 0.00 | 28 | 1014.9 |
| 20260505001502 | 70 | 197 | 0.0 | 0.0 | 0.00 | 0.00 | 0.00 | 27 | 1014.8 |
| 20260505000001 | 72 | 198 | 0.0 | 0.0 | 0.00 | 0.00 | 0.00 | 25 | 1014.7 |
| 20260504234502 | 72 | 205 | 0.0 | 0.0 | 0.00 | 0.00 | 0.00 | 23 | 1014.7 |
| 20260504233030 | 74 | 200 | 0.0 | 0.9 | 0.00 | 0.00 | 0.00 | 22 | 1014.4 |
| 20260504231541 | 74 | 192 | 0.0 | 1.7 | 0.00 | 0.00 | 0.00 | 21 | 1014.3 |
| 20260504230028 | 75 | 261 | 0.0 | 3.5 | 0.00 | 0.00 | 0.00 | 20 | 1014.3 |
| 20260504224528 | 76 | 180 | 2.6 | 9.6 | 0.00 | 0.00 | 0.00 | 19 | 1014.3 |
| 20260504223026 | 76 | 170 | 0.0 | 6.1 | 0.00 | 0.00 | 0.00 | 20 | 1014.1 |
| 20260504221526 | 77 | 185 | 0.0 | 0.9 | 0.00 | 0.00 | 0.00 | 18 | 1014.3 |
| 20260504220055 | 77 | 186 | 0.0 | 1.7 | 0.00 | 0.00 | 0.00 | 18 | 1014.4 |
| 20260504214555 | 77 | 159 | 0.0 | 10.4 | 0.00 | 0.00 | 0.00 | 20 | 1014.4 |
| 20260504213052 | 77 | 229 | 0.0 | 1.7 | 0.00 | 0.00 | 0.00 | 19 | 1014.3 |
| 20260504211553 | 77 | 174 | 0.0 | 7.8 | 0.00 | 0.00 | 0.00 | 19 | 1014.4 |
| 20260504210105 | 77 | 124 | 0.0 | 8.7 | 0.00 | 0.00 | 0.00 | 18 | 1014.4 |
| 20260504204559 | 77 | 166 | 0.0 | 9.6 | 0.00 | 0.00 | 0.00 | 20 | 1014.5 |
| 20260504203048 | 77 | 238 | 2.6 | 9.6 | 0.00 | 0.00 | 0.00 | 19 | 1014.7 |
| 20260504201548 | 76 | 209 | 2.6 | 9.6 | 0.00 | 0.00 | 0.00 | 19 | 1015.0 |
| 20260504200039 | 76 | 246 | 0.0 | 6.1 | 0.00 | 0.00 | 0.00 | 18 | 1015.2 |
| 20260504194558 | 76 | 297 | 0.0 | 7.8 | 0.00 | 0.00 | 0.00 | 21 | 1015.3 |
| 20260504193034 | 76 | 180 | 0.9 | 6.1 | 0.00 | 0.00 | 0.00 | 25 | 1015.5 |
| 20260504191541 | 76 | 238 | 0.9 | 7.8 | 0.00 | 0.00 | 0.00 | 23 | 1015.6 |
| 20260504190032 | 75 | 146 | 3.5 | 9.6 | 0.00 | 0.00 | 0.00 | 21 | 1015.8 |
| 20260504184535 | 75 | 171 | 0.9 | 9.6 | 0.00 | 0.00 | 0.00 | 25 | 1016.0 |
| 20260504183022 | 74 | 205 | 0.0 | 0.9 | 0.00 | 0.00 | 0.00 | 26 | 1016.1 |
| 20260504181519 | 75 | 257 | 0.0 | 0.9 | 0.00 | 0.00 | 0.00 | 26 | 1016.3 |
| 20260504180020 | 73 | 139 | 3.5 | 7.0 | 0.00 | 0.00 | 0.00 | 25 | 1016.4 |
| 20260504174515 | 73 | 91 | 2.6 | 8.7 | 0.00 | 0.00 | 0.00 | 24 | 1016.5 |
| 20260504173135 | 72 | 119 | 0.0 | 7.0 | 0.00 | 0.00 | 0.00 | 29 | 1016.6 |
| 20260504171540 | 72 | 115 | 1.7 | 6.1 | 0.00 | 0.00 | 0.00 | 26 | 1016.8 |
| 20260504120108 | 49 | 180 | 0.0 | 0.0 | 0.00 | 0.00 | 0.00 | 65 | 1017.9 |
| 20260504081508 | 50 | 180 | 0.0 | 0.0 | 0.00 | 0.00 | 0.00 | 55 | 1017.5 |
| 20260504050104 | 55 | 144 | 0.0 | 1.7 | 0.00 | 0.00 | 0.00 | 46 | 1017.4 |
| 20260504044536 | 56 | 173 | 0.0 | 0.9 | 0.00 | 0.00 | 0.00 | 46 | 1017.8 |
| 20260504043032 | 56 | 159 | 0.0 | 0.9 | 0.00 | 0.00 | 0.00 | 46 | 1017.7 |
| 20260504041527 | 56 | 174 | 0.0 | 0.0 | 0.00 | 0.00 | 0.00 | 46 | 1017.8 |
| 20260504040029 | 56 | 152 | 0.0 | 0.0 | 0.00 | 0.00 | 0.00 | 46 | 1018.1 |
| 20260504034536 | 56 | 159 | 0.0 | 0.0 | 0.00 | 0.00 | 0.00 | 46 | 1018.1 |
| 20260504033026 | 56 | 144 | 0.0 | 0.0 | 0.00 | 0.00 | 0.00 | 46 | 1018.1 |